Tracking 31027 objects as of 19-Jul-2025
HD Live streaming from Space Station
objects crossing your sky now

COSMOS 1862

Track COSMOS 1862 now!
10-day predictions
COSMOS 1862 is classified as:


NORAD ID: 18152
Int'l Code: 1987-055A
Perigee: 486.0 km
Apogee: 501.6 km
Inclination: 82.5 °
Period: 94.3 minutes
Semi major axis: 6864 km
RCS: 8.6433 m2 (large)
Launch date: July 1, 1987
Source: Commonwealth of Independent States (former USSR) (CIS)
Launch site: PLESETSK MISSILE AND SPACE COMPLEX (PKMTR)
Your satellite tracking list
COSMOS 2251 DEB
Track 1 satellite(s)




NASA's NSSDC Master Catalog

Two Line Element Set (TLE):
1 18152U 87055A   25199.55234871  .00004971  00000-0  18966-3 0  9997
2 18152  82.4876 283.5867 0011342 119.6986 240.5383 15.26372519 54076
Source of the keplerian elements: AFSPC